Main page
METAR-TAF:

METAR-TAF

Airports :

Lawrence Municipal Airport

Lawrence, Massachusetts, United States

latitude: 42-42-47N, longitude: 071-07-33W, elevation: 148 ft

Current weather observation

The report was made 34 minutes ago, at 02:54 UTC
Wind 6 mph from the South/Southwest
Temperature 45°F
Humidity 53%
Pressure 29.96 in. Hg
Visibility: 10 miles
Clear sky

METAR: KLWM 250254Z 21005KT 10SM CLR 07/M02 A2996 RMK AO2 SLP146 T00721017 50006

Time: 22:28 (03:28 UTC)


TAF: missing

Weather observations and forecasts of more than 4000 airports (METAR and TAF reports).

The available stations are represented by yellow and red dots on the map.

Hover mouse over dot to see the name of the station.

Then click to see weather observations and forecasts.

To change the map : click on the green buttons with a black cross to zoom in, on the green button with a dash to zoom out, or on the green arrows for adjacent maps.


METAR-TAF: